This is the latest recevied weather packets stored in our database for station/object KD8DNS. If no packets are shown the sender has not sent any weather packets the latest 10 day(s).
| Time | Temp. | Humidity | Pressure | Rain* | Wind** | Luminosity | Snow |
|---|---|---|---|---|---|---|---|
| 1788297985 | 33.89° C | 56% | 1020.1 hPa | 0 mm | - | 70 W/m² | - |
| 1788297681 | 33.89° C | 57% | 1020.2 hPa | 0 mm | - | 153 W/m² | - |
| 1788297377 | 33.89° C | 56% | 1020 hPa | 0 mm | - | 74 W/m² | - |
| 1788297073 | 33.89° C | 58% | 1020.1 hPa | 0 mm | - | 124 W/m² | - |
| 1788296769 | 33.89° C | 57% | 1020.1 hPa | 0 mm | - | 76 W/m² | - |
| 1788296464 | 33.89° C | 56% | 1019.9 hPa | 0 mm | - | 76 W/m² | - |
| 1788296159 | 33.89° C | 56% | 1020.2 hPa | 0 mm | - | 77 W/m² | - |
| 1788295854 | 33.89° C | 56% | 1020.3 hPa | 0 mm | - | 80 W/m² | - |
| 1788295550 | 33.89° C | 56% | 1020.2 hPa | 0 mm | - | 140 W/m² | - |
| 1788295244 | 33.89° C | 56% | 1019.9 hPa | 0 mm | - | 385 W/m² | - |
| 1788294938 | 33.89° C | 56% | 1020.2 hPa | 0 mm | - | 394 W/m² | - |
| 1788294633 | 33.89° C | 58% | 1020.2 hPa | 0 mm | - | 270 W/m² | - |
| 1788294328 | 33.89° C | 59% | 1020.2 hPa | 0 mm | - | 404 W/m² | - |
| 1788294024 | 33.89° C | 57% | 1020 hPa | 0 mm | - | 393 W/m² | - |
| 1788293720 | 33.89° C | 60% | 1020.1 hPa | 0 mm | - | 477 W/m² | - |
| 1788293414 | 33.89° C | 57% | 1020.1 hPa | 0 mm | - | 464 W/m² | - |
| 1788293108 | 34.44° C | 56% | 1020.1 hPa | 0 mm | - | 444 W/m² | - |
| 1788292803 | 33.89° C | 57% | 1020.2 hPa | 0 mm | - | 95 W/m² | - |
| 1788292501 | 33.89° C | 57% | 1020.3 hPa | 0 mm | - | 505 W/m² | - |
| 1788292200 | 34.44° C | 57% | 1020.3 hPa | 0 mm | - | 537 W/m² | - |
| 1788291895 | 34.44° C | 55% | 1020.6 hPa | 0 mm | - | 505 W/m² | - |
| 1788291591 | 33.89° C | 56% | 1020.5 hPa | 0 mm | - | 462 W/m² | - |
| 1788291291 | 34.44° C | 54% | 1020.5 hPa | 0 mm | - | 469 W/m² | - |
| 1788290990 | 34.44° C | 55% | 1020.2 hPa | 0 mm | - | 494 W/m² | - |
| 1788290686 | 34.44° C | 55% | 1020.9 hPa | 0 mm | - | 514 W/m² | - |
* Rain latest hour (hover to see other rain measurements)
** Current wind speed in m/s (hover to see current wind gust speed)